Skip Page Navigation
NASA JPL Caltech
NASA Logo - Jet Propulsion Laboratory + View the NASA Portal
+ Center for Near-Earth Object Studies
JPL Home Earth Solar System Stars & Galaxies Technology
JPL Solar System Dynamics
BODIES ORBITS EPHEMERIDES TOOLS PHYSICAL DATA DISCOVERY FAQ SITE MAP
JPL Small-Body Database Browser
Search: [ help ]  
118902 (2000 UU67)
Classification: Main-belt Asteroid          SPK-ID: 2118902
Ephemeris | Orbit Diagram | Orbital Elements | Mission Design | Physical Parameters | Discovery Circumstances | Close-Approach Data ]

[ show orbit diagram ]
Orbital Elements at Epoch 2459200.5 (2020-Dec-17.0) TDB
Reference: JPL 15 (heliocentric ecliptic J2000)
 Element Value Uncertainty (1-sigma)   Units 
e .08327649035276298 7.0617e-08  
a 3.087957453351319 3.6364e-08 au
q 2.830803194277565 2.1108e-07 au
i 11.13791997531164 7.6427e-06 deg
node 243.3197768408445 3.087e-05 deg
peri 175.7728722626653 4.8385e-05 deg
M 244.1171430177652 3.8304e-05 deg
tp 2459838.502061072943
(2022-Sep-16.00206107)
0.00021531 TDB
period 1982.007934283761
5.43
3.501e-05
9.585e-08
d
yr
n .1816339852999092 3.2084e-09 deg/d
Q 3.345111712425072 3.9392e-08 au
  Orbit Determination Parameters
   # obs. used (total)      365  
   data-arc span      7653 days (20.95 yr)  
   first obs. used      1998-06-19  
   last obs. used      2019-06-02  
   planetary ephem.      DE431  
   SB-pert. ephem.      SB431-N16  
   condition code      0  
   norm. resid. RMS      .56156  
   source      ORB  
   producer      Otto Matic  
   solution date      2020-Nov-12 18:08:10  

Additional Information
 Earth MOID = 1.84281 au 
 Jupiter MOID = 1.97823 au 
 T_jup = 3.191 
[ show covariance matrix ]

Ephemeris | Orbit Diagram | Orbital Elements | Mission Design | Physical Parameters | Discovery Circumstances | Close-Approach Data ]

Physical Parameter Table
Parameter Symbol Value Units Sigma Reference Notes
absolute magnitude H 14.8   n/a MPO475044  

118902 (2000 UU67)          Discovered 2000-Oct-25 by LINEAR at Socorro
Reference: 20051116/Numbers.arcLast Updated: 2005-11-21

[ show close-approach data ]
Alternate Designations
 2000 UU67 = 1998 MQ14 
Ephemeris | Orbit Diagram | Orbital Elements | Mission Design | Physical Parameters | Discovery Circumstances | Close-Approach Data ]
ABOUT SSD CREDITS/AWARDS PRIVACY/COPYRIGHT GLOSSARY LINKS
FirstGov 2021-Apr-13 05:48 UT
(server date/time)  
NASA Home Page
Site Manager:   Ryan S. Park
Webmaster  Alan B. Chamberlin